Location: Go�ngahuizen
(53.0821°N, 5.8849°E)
Time: 13:38:14
(UTC+00:00)

ATLAS CENTAUR R/B - Pass Details

Date: 09 April 2020
Orbit: 471 x 675 km, 64.7° (Epoch: 01 June)

Event Time Altitude Azimuth Distance (km) Brightness Sun altitude
Rises 21:53:54 0° 310° (NW) 2,668 5.9 -25.0°
Reaches altitude 10° 21:56:21 10° 298° (WNW) 1,741 4.6 -25.2°
Enters shadow 21:58:37 24° 267° (W) 1,085 3.0 -25.4°
